Location: Lynch Observatory
(39.9540°N, 75.1861°W)
Time: 01:25:58
(UTC-04:00)

TIGRISAT - Visible Passes

Search period start: 16 April 2024 00:00
Search period end: 26 April 2024 00:00
Orbit: 594 x 674 km, 97.7° (Epoch: 15 April)

Date Brightness Start Highest point End Pass type
(mag) Time Alt. Az. Time Alt. Az. Time Alt. Az.
16 Apr ? 04:43:18 10° SSE 04:47:42 56° ENE 04:52:01 10° N visible
17 Apr ? 05:04:52 10° S 05:09:22 83° WSW 05:13:47 10° NNW visible
18 Apr ? 03:52:19 10° ESE 03:55:02 16° ENE 03:57:44 10° NNE visible
18 Apr ? 05:26:47 10° S 05:31:05 47° W 05:35:20 10° NNW visible
19 Apr ? 04:12:50 10° SE 04:16:32 26° ENE 04:20:10 10° NNE visible
20 Apr ? 04:33:52 10° SE 04:38:05 44° ENE 04:42:13 10° N visible
21 Apr ? 04:55:15 10° SSE 04:59:41 78° ENE 05:04:02 10° N visible
22 Apr ? 03:43:27 10° E 03:45:24 13° ENE 03:47:20 10° NE visible
22 Apr ? 05:16:57 10° S 05:21:19 59° W 05:25:37 10° NNW visible
23 Apr ? 04:03:32 10° ESE 04:06:49 21° ENE 04:10:04 10° NNE visible
23 Apr ? 05:39:02 10° SSW 05:43:01 33° W 05:46:58 10° NNW visible
24 Apr ? 04:24:20 10° SE 04:28:18 35° ENE 04:32:13 10° N visible
25 Apr ? 04:45:31 10° SSE 04:49:50 60° ENE 04:54:05 10° N visible
